Flag for Germany Weather past 2 weeks in Naumburg (Saale), Saxony-Anhalt, Germany

Now
67 °F

Partly sunny.


Feels Like: 67 °F
Forecast: 55 / 64 °F
Wind: 5 mph from West

Location: Gera-Leumnitz

Current Time: Aug 30, 2014 at 6:13:07 PM

Latest Report: Aug 30, 2014 at 6:00 PM


Visibility: 44 mi

Pressure: 30.01 "Hg

Humidity: 62%

Dew point: 53 °F

Location of Naumburg (Saale)Location

Historic Weather in Naumburg (Saale) — Graph

°F

Naumburg (Saale) temperature yesterday

Maximum temperature yesterday: 70 °F (at 2:00 PM)
Minimum temperature yesterday: 56 °F (at 7:00 AM)
Average temperature yesterday: 63 °F

Past Weeks' High & Low Weather Summary

 TemperatureHumidityPressure
High71 °F (Aug 28, 6:00 PM)97% (Aug 26, 11:00 PM)30.11 "Hg (Aug 26, 11:00 PM)
Low46 °F (Aug 20, 6:00 AM)32% (Aug 22, 5:00 PM)29.70 "Hg (Aug 26, 9:00 AM)
Average57 °F74%29.95 "Hg
* Reported Aug 15 5:00 PM — Aug 30 5:00 PM, Naumburg (Saale), Weather by CustomWeather, © 2014

Note: Actual official high and low records may vary slightly from our data, if they occured in-between our weather recording intervals... More about our weather records

Advertising

Naumburg (Saale) weather history for previous 24 hours

 ConditionsComfort  
Time TempWeatherWind HumidityBarometerVisibility
5:00 PM
Aug 30
67 °FPartly sunny.5 mph62%30.02 "Hg37 mi
4:00 PM69 °FPartly sunny.6 mph55%30.02 "Hg37 mi
3:00 PM68 °FOvercast.6 mph59%30.03 "Hg37 mi
2:00 PM66 °FOvercast.5 mph66%30.04 "Hg25 mi
1:00 PM67 °FPartly sunny.3 mph59%30.05 "Hg22 mi
12:00 PM66 °FOvercast.6 mph66%30.05 "Hg25 mi
11:00 AM65 °FPartly sunny.5 mph71%30.05 "Hg25 mi
10:00 AM62 °FPartly sunny.5 mph82%30.05 "Hg22 mi
9:00 AM60 °FOvercast.3 mph91%30.06 "Hg14 mi
8:00 AM58 °FFog.3 mph96%30.05 "Hg4 mi
7:00 AM56 °FFog.2 mph97%30.04 "Hg4 mi
6:00 AM57 °FOvercast.3 mph96%30.03 "Hg4 mi
5:00 AM58 °FLight rain. Low clouds.3 mph95%30.04 "Hg2 mi
4:00 AM57 °FFog.2 mph96%30.03 "Hg3 mi
3:00 AM57 °FOvercast.2 mph96%30.04 "Hg6 mi
2:00 AM57 °FFog.2 mph96%30.04 "Hg2 mi
1:00 AM58 °FOvercast.2 mph94%30.03 "Hg7 mi
12:00 AM59 °FOvercast.2 mph93%30.03 "Hg5 mi
11:00 PM
Aug 29
60 °FOvercast.3 mph90%30.02 "Hg9 mi
9:00 PM63 °FOvercast.2 mph86%30.00 "Hg12 mi
8:00 PM65 °FSunny.1 mph77%29.99 "Hg25 mi
7:00 PM69 °FPassing clouds.3 mph66%29.97 "Hg31 mi
6:00 PM69 °FSunny.3 mph75%29.97 "Hg17 mi
Weather by CustomWeather, © 2014

See weather overviewHow to use our weather pages